RH
80 74 69 60 51 44 37 33 29 27 24 22 20 23 23 23 23 25 28 30 31 33 35 36 38 42 41
71 64 54 47 42 37 31 29 27 22 19 17 17 17 19 24 26 27 30 33 35 35 36 36 37 38 38
60 52 46 38 34 31 29 23 19 16 16 18 19 21 22 23 30 31 32 33 34 35 36 37 38 39 42
49 44 36 33 33 29 27 19 18 18 20 22 24 26 28 30 32 34 35 36 37 41 42 43 42 43 42
38 35 34 35 31 24 22 24 23 22 24 28 31 35 38 39 39 38 40 43 47 52 53 54 55 53 52
37 35 33 24 21 23 26 30 29 29 31 35 35 33 33 33 35 36 37 39 46 55 64 72 66 61 58
32 24 21 19 23 27 30 33 35 36 35 36 37 33 36 34 36 36 37 41 47 58 68 74 84 80 70
20 19 20 25 32 34 36 38 41 40 43 41 38 40 41 38 36 39 43 47 54 66 72 79 79 79 84
19 19 25 29 34 37 43 45 41 46 49 49 49 49 49 44 41 42 44 49 55 60 67 72 73 72 70
19 27 31 37 43 48 48 46 51 52 54 57 57 60 57 62 57 51 47 49 51 55 59 62 63 65 64
28 33 40 48 54 54 52 56 60 60 62 65 66 71 75 69 72 70 61 55 51 53 56 58 60 62 64
37 45 53 58 56 55 62 65 64 64 68 74 75 79 81 78 74 74 74 71 64 62 66 64 62 61 61
49 56 60 57 55 63 66 64 64 68 72 77 81 85 87 83 79 74 71 75 74 80 81 81 78 73 64
58 60 58 56 64 66 64 64 63 68 77 83 86 89 89 86 82 75 79 80 80 83 85 87 89 85 80
60 60 59 63 67 68 68 67 68 70 78 85 88 91 91 89 81 84 81 83 88 90 90 88 90 88 84
62 63 65 68 69 69 69 70 72 78 82 85 86 86 87 87 89 84 84 84 86 89 90 89 89 94 90
63 64 67 69 69 69 68 71 76 80 83 88 91 90 85 82 90 95 88 86 86 87 91 91 90 92 94